ASTRA 2F

Last updated on Sun Jun 21 2026 00:03:05 GMT+0000 (Coordinated Universal Time)

1 38778U 12051A 26171.32626139 .00000145 00000+0 00000+0 0 9999 2 38778 0.0546 254.3347 0001656 280.1839 239.6386 1.00271758 41167
UTC large
Height (km)
Speed (km/s)
/
Latitude / Longitude
Inclination (degrees)
Orbital Period (minutes)
Azimuth
Elevation
Range (km)
Doppler Factor

Next 0 passes for location: London (51.5072 / 0.1276)

No passes found over London.
ASTRA 2F